Location: Mannheim
(49.4880°N, 8.4650°E)
Time: 05:41:43
(UTC+02:00)

ISS - Pass Details

Date: 24 September 2018
Orbit: 403 x 409 km, 51.6° (Epoch: 24 September)

Event Time Altitude Azimuth Distance (km) Brightness Sun altitude
Rises 21:52:13 0° 253° (WSW) 2,330 0.6 -24.4°
Reaches altitude 10° 21:54:18 10° 255° (WSW) 1,470 -0.5 -24.7°
Enters shadow 21:55:39 23° 256° (WSW) 929 -1.6 -24.9°
